Location: Boulin
(43.2500°N, 0.1333°E)
Time: 02:24:52
(UTC+00:00)

Cosmos 1933 - Pass Details

Date: 11 December 2025
Orbit: 510 x 517 km, 82.5° (Epoch: 17 January)

Event Time Altitude Azimuth Distance (km) Brightness Sun altitude
Rises 16:52:04 0° 163° (SSE) 2,626 6.9 -5.3°
Reaches altitude 10° 16:54:22 10° 152° (SSE) 1,743 5.9 -5.7°
Maximum altitude 16:57:42 29° 91° (E) 969 4.1 -6.2°
Drops below altitude 10° 17:01:03 10° 30° (NNE) 1,752 5.4 -6.8°
Enters shadow 17:03:15 - 20° (NNE) 2,595 6.3 -7.1°
